Location: Ottawa
(45.4170°N, 75.7000°W)
Time: 23:30:25
(UTC-04:00)

ISS - Pass Details

Date: 23 May 2021
Orbit: 417 x 422 km, 51.6° (Epoch: 13 June)

Event Time Altitude Azimuth Distance (km) Brightness Sun altitude
Rises 22:22:37 0° 294° (WNW) 2,367 1.2 -14.8°
Reaches altitude 10° 22:24:53 10° 306° (NW) 1,503 0.3 -15.0°
Maximum altitude 22:27:55 30° 9° (N) 787 -1.9 -15.4°
Drops below altitude 10° 22:30:56 10° 73° (ENE) 1,503 -1.1 -15.7°
Enters shadow 22:31:10 - 75° (ENE) 1,584 -1.0 -15.7°
